This demonstration page uses our WeatherBlox Daily Observations layout. Learn more.

Left ArrowRight Arrow

Hourly Observations for April 27, 2015

Temp ( °F °C ) Dew Point ( °F °C ) Humidity (%) Winds ( mph kmh ) Pressure ( in mb ) Visibility ( mi km ) Precip ( " mm )
12:53 am 00:53 Clear 43 6.1 37 2.8 80 80 NE 5 7 30.10 1019 10 16 0.00 0.00
1:53 am 01:53 Clear 42 5.6 36 2.2 79 79 Calm 30.11 1020 10 16 0.00 0.00
2:53 am 02:53 Clear 38 3.3 34 1.1 86 86 NNE 3 6 30.11 1020 10 16 0.00 0.00
3:53 am 03:53 Clear 39 3.9 34 1.1 82 82 NNW 5 7 30.13 1020 10 16 0.00 0.00
4:53 am 04:53 Clear 38 3.3 33 0.6 83 83 NE 5 7 30.15 1021 10 16 0.00 0.00
5:53 am 05:53 Clear 37 2.8 33 0.6 86 86 N 5 7 30.17 1022 10 16 0.00 0.00
6:53 am 06:53 Sunny 36 2.2 33 0.6 89 89 NE 3 6 30.19 1022 7 11 0.00 0.00
7:53 am 07:53 Sunny 39 3.9 35 1.7 86 86 NE 5 7 30.20 1023 9 14 0.00 0.00
8:53 am 08:53 Sunny 46 7.8 38 3.3 73 73 NE 7 11 30.20 1023 10 16 0.00 0.00
9:53 am 09:53 Sunny 51 10.6 39 3.9 64 64 NE 7 11 30.21 1023 10 16 0.00 0.00
10:53 am 10:53 Sunny 55 12.8 36 2.2 49 49 ENE 10 17 30.22 1024 10 16 0.00 0.00
11:53 am 11:53 Sunny 60 15.6 36 2.2 41 41 ENE 14 22 30.22 1023 10 16 0.00 0.00
12:53 pm 12:53 Sunny 60 15.6 36 2.2 41 41 ENE 12 19 30.21 1023 10 16 0.00 0.00
1:53 pm 13:53 Sunny 62 16.7 35 1.7 37 37 ENE 15 24 30.19 1023 10 16 0.00 0.00
2:53 pm 14:53 Sunny 63 17.2 34 1.1 34 34 ENE 16 26 30.18 1022 10 16 0.00 0.00
3:53 pm 15:53 Sunny 63 17.2 34 1.1 34 34 NNE 15 24 30.16 1022 10 16 0.00 0.00
4:53 pm 16:53 Sunny 64 17.8 34 1.1 33 33 NNE 15 24 30.14 1021 10 16 0.00 0.00
5:53 pm 17:53 Sunny 63 17.2 32 0 31 31 ENE 13 20 30.14 1021 10 16 0.00 0.00
6:53 pm 18:53 Sunny 62 16.7 35 1.7 37 37 ENE 8 13 30.14 1021 10 16 0.00 0.00
7:53 pm 19:53 Sunny 58 14.4 37 2.8 46 46 ENE 5 7 30.15 1021 10 16 0.00 0.00
8:53 pm 20:53 Clear 56 13.3 38 3.3 51 51 Calm 30.16 1022 10 16 0.00 0.00
9:53 pm 21:53 Clear 52 11.1 37 2.8 57 57 E 3 6 30.18 1022 10 16 0.00 0.00
10:53 pm 22:53 Clear 49 9.4 37 2.8 64 64 N 3 6 30.19 1022 10 16 0.00 0.00
11:53 pm 23:53 Clear 43 6.1 36 2.2 76 76 WNW 5 7 30.20 1023 10 16 0.00 0.00

Powered by AerisWeather